timestamp,surface_pressure_avg,surface_temp_avg,battery_voltage,lat,long
2022-12-17 00:09:00+00:00,222.8231,4.2,12.33,47.84626,-54.09684
2022-12-17 00:19:00+00:00,223.8297,4.33,12.33,47.84626,-54.09684
2022-12-17 00:29:00+00:00,226.4515,4.4,12.33,47.84626,-54.09684
2022-12-17 00:39:00+00:00,226.8464,4.4,12.33,47.84626,-54.09684
2022-12-17 00:49:00+00:00,227.7281,4.4,12.33,47.84626,-54.09684
2022-12-17 00:59:00+00:00,229.6731,4.3,12.33,47.84626,-54.09684
2022-12-17 01:09:00+00:00,227.4414,4.2,12.33,47.84626,-54.09684
2022-12-17 01:19:01+00:00,226.6631,4.26,12.33,47.84626,-54.09684
2022-12-17 01:29:01+00:00,231.8198,4.3,12.33,47.84626,-54.09684
2022-12-17 01:39:01+00:00,235.9414,4.34,12.33,47.84626,-54.09684
2022-12-17 01:49:01+00:00,236.4081,4.29,12.33,47.84626,-54.09684
2022-12-17 01:59:01+00:00,239.6547,4.3,12.33,47.84626,-54.09684
2022-12-17 02:09:01+00:00,248.248,4.31,12.33,47.84626,-54.09684
2022-12-17 02:19:01+00:00,254.0998,4.4,12.33,47.84626,-54.09684
2022-12-17 02:29:01+00:00,256.3031,4.47,12.33,47.84626,-54.09684
2022-12-17 02:39:01+00:00,261.7714,4.5,12.33,47.84626,-54.09684
2022-12-17 02:49:01+00:00,268.1264,4.5,12.33,47.84626,-54.09684
2022-12-17 02:59:01+00:00,271.4214,4.5,12.33,47.84626,-54.09684
2022-12-17 03:09:01+00:00,275.5231,4.39,12.33,47.84626,-54.09684
2022-12-17 03:19:00+00:00,282.6531,4.5,12.33,47.84626,-54.09684
2022-12-17 03:29:00+00:00,287.7413,4.49,12.33,47.84626,-54.09684
2022-12-17 03:39:00+00:00,290.4314,4.5,12.33,47.84626,-54.09684
2022-12-17 03:49:00+00:00,292.8914,4.5,12.33,47.84626,-54.09684
2022-12-17 03:59:00+00:00,298.3597,4.5,12.33,47.84626,-54.09684
2022-12-17 04:09:00+00:00,303.4246,4.5,12.33,47.84626,-54.09684
2022-12-17 04:19:00+00:00,309.4263,4.5,12.33,47.84626,-54.09684
2022-12-17 04:29:00+00:00,310.4298,4.5,12.33,47.84626,-54.09684
2022-12-17 04:39:00+00:00,309.8214,4.5,12.33,47.84626,-54.09684
2022-12-17 04:49:00+00:00,310.5546,4.5,12.33,47.84626,-54.09684
2022-12-17 04:59:00+00:00,311.1246,4.5,12.33,47.84626,-54.09684
2022-12-17 05:09:00+00:00,312.0564,4.5,12.33,47.84626,-54.09684
2022-12-17 05:19:00+00:00,315.4313,4.5,12.33,47.84626,-54.09684
2022-12-17 05:29:00+00:00,320.0764,4.5,12.33,47.84626,-54.09684
2022-12-17 05:39:00+00:00,323.4915,4.5,12.33,47.84626,-54.09684
2022-12-17 05:49:00+00:00,324.0613,4.5,12.33,47.84626,-54.09684
2022-12-17 05:59:00+00:00,321.6829,4.5,12.33,47.84626,-54.09684
2022-12-17 06:09:00+00:00,320.6895,4.49,12.33,47.84626,-54.09684
2022-12-17 06:19:00+00:00,321.5264,4.47,12.33,47.84626,-54.09684
2022-12-17 06:29:00+00:00,324.3398,4.46,12.33,47.84626,-54.09684
2022-12-17 06:39:00+00:00,322.2162,4.4,12.33,47.84626,-54.09684
2022-12-17 06:49:00+00:00,322.2213,4.45,12.33,47.84626,-54.09684
2022-12-17 06:59:00+00:00,317.8114,4.46,12.33,47.84626,-54.09684
2022-12-17 07:09:00+00:00,310.4581,4.48,12.33,47.84626,-54.09684
2022-12-17 07:19:01+00:00,308.283,4.49,12.33,47.84626,-54.09684
2022-12-17 07:29:01+00:00,308.488,4.5,12.33,47.84626,-54.09684
2022-12-17 07:39:01+00:00,306.9813,4.5,12.33,47.84626,-54.09684
2022-12-17 07:49:01+00:00,302.3363,4.5,12.33,47.84626,-54.09684
2022-12-17 07:59:01+00:00,300.418,4.5,12.33,47.84626,-54.09684
2022-12-17 08:09:01+00:00,292.1196,4.5,12.33,47.84626,-54.09684
2022-12-17 08:19:00+00:00,280.4963,4.5,12.33,47.84626,-54.09684
2022-12-17 08:29:00+00:00,274.4965,4.5,12.33,47.84626,-54.09684
2022-12-17 08:39:00+00:00,275.783,4.5,12.33,47.84626,-54.09684
2022-12-17 08:49:00+00:00,271.3264,4.5,12.33,47.84626,-54.09684
2022-12-17 08:59:00+00:00,263.3181,4.5,12.33,47.84626,-54.09684
2022-12-17 09:09:00+00:00,263.9914,4.5,12.33,47.84626,-54.09684
2022-12-17 09:19:00+00:00,265.7131,4.5,12.33,47.84626,-54.09684
2022-12-17 09:29:00+00:00,260.2047,4.5,12.33,47.84626,-54.09684
2022-12-17 09:39:00+00:00,252.2581,4.5,12.33,47.84626,-54.09684
2022-12-17 09:49:00+00:00,251.7464,4.5,12.33,47.84626,-54.09684
2022-12-17 09:59:00+00:00,250.9897,4.5,12.33,47.84626,-54.09684
2022-12-17 10:09:00+00:00,245.2081,4.5,12.33,47.84626,-54.09684
2022-12-17 10:19:01+00:00,241.4898,4.5,12.33,47.84626,-54.09684
2022-12-17 10:29:01+00:00,242.5582,4.5,12.33,47.84626,-54.09684
2022-12-17 10:39:01+00:00,244.3848,4.5,12.33,47.84626,-54.09684
2022-12-17 10:49:01+00:00,239.0414,4.5,12.33,47.84626,-54.09684
2022-12-17 10:59:01+00:00,236.4031,4.5,12.33,47.84626,-54.09684
2022-12-17 11:09:01+00:00,239.3464,4.5,12.33,47.84626,-54.09684
2022-12-17 11:19:00+00:00,242.4982,4.5,12.33,47.84626,-54.09684
2022-12-17 11:29:00+00:00,239.0597,4.5,12.33,47.84626,-54.09684
2022-12-17 11:39:00+00:00,236.7231,4.5,12.33,47.84626,-54.09684
2022-12-17 11:49:00+00:00,239.7747,4.5,12.33,47.84626,-54.09684
2022-12-17 11:59:00+00:00,241.7614,4.5,12.33,47.84626,-54.09684
2022-12-17 12:09:00+00:00,235.8631,4.5,12.33,47.84626,-54.09684
2022-12-17 12:19:01+00:00,233.3864,4.5,12.33,47.84626,-54.09684
2022-12-17 12:29:01+00:00,238.7115,4.42,12.33,47.84626,-54.09684
2022-12-17 12:39:01+00:00,242.9982,4.4,12.33,47.84626,-54.09684
2022-12-17 12:49:01+00:00,239.9764,4.4,12.33,47.84626,-54.09684
2022-12-17 12:59:01+00:00,239.3898,4.4,12.33,47.84626,-54.09684
2022-12-17 13:09:01+00:00,242.8614,4.4,12.33,47.84626,-54.09684
2022-12-17 13:19:00+00:00,242.6264,4.4,12.41,47.84626,-54.09684
2022-12-17 13:29:00+00:00,241.113,4.4,12.41,47.84626,-54.09684
2022-12-17 13:39:00+00:00,246.7831,4.4,12.41,47.84626,-54.09684
2022-12-17 13:49:00+00:00,251.693,4.4,12.41,47.84626,-54.09684
2022-12-17 13:59:00+00:00,249.1581,4.4,12.41,47.84626,-54.09684
2022-12-17 14:09:00+00:00,250.3698,4.4,12.41,47.84626,-54.09684
2022-12-17 14:19:01+00:00,256.5763,4.4,12.57,47.84626,-54.09684
2022-12-17 14:29:01+00:00,258.5231,4.4,12.57,47.84626,-54.09684
2022-12-17 14:39:01+00:00,256.2447,4.4,12.57,47.84626,-54.09684
2022-12-17 14:49:01+00:00,259.9531,4.4,12.57,47.84626,-54.09684
2022-12-17 14:59:01+00:00,267.4047,4.38,12.57,47.84626,-54.09684
2022-12-17 15:09:01+00:00,270.6796,4.39,12.57,47.84626,-54.09684
2022-12-17 15:19:00+00:00,273.5014,4.4,13.29,47.84626,-54.09684
2022-12-17 15:29:00+00:00,280.1547,4.4,13.29,47.84626,-54.09684
2022-12-17 15:39:00+00:00,285.2597,4.38,13.29,47.84626,-54.09684
2022-12-17 15:49:00+00:00,285.4631,4.4,13.29,47.84626,-54.09684
2022-12-17 15:59:00+00:00,286.388,4.4,13.29,47.84626,-54.09684
2022-12-17 16:09:00+00:00,290.0847,4.4,13.29,47.84626,-54.09684
2022-12-17 16:19:00+00:00,298.0331,4.4,13.37,47.84626,-54.09684
2022-12-17 16:29:00+00:00,303.5731,4.4,13.37,47.84626,-54.09684
2022-12-17 16:39:00+00:00,305.7764,4.4,13.37,47.84626,-54.09684
2022-12-17 16:49:00+00:00,308.2496,4.4,13.37,47.84626,-54.09684
2022-12-17 16:59:00+00:00,311.858,4.36,13.37,47.84626,-54.09684
2022-12-17 17:09:00+00:00,312.6664,4.4,13.37,47.84626,-54.09684
2022-12-17 17:19:00+00:00,313.3815,4.4,13.37,47.84626,-54.09684
2022-12-17 17:29:00+00:00,315.8679,4.4,13.37,47.84626,-54.09684
2022-12-17 17:39:00+00:00,319.3514,4.4,13.37,47.84626,-54.09684
2022-12-17 17:49:00+00:00,320.6063,4.4,13.37,47.84626,-54.09684
2022-12-17 17:59:00+00:00,323.3064,4.4,13.37,47.84626,-54.09684
2022-12-17 18:09:00+00:00,325.3096,4.4,13.37,47.84626,-54.09684
2022-12-17 18:19:00+00:00,327.2163,4.3,12.65,47.84626,-54.09684
2022-12-17 18:29:00+00:00,322.7379,4.2,12.65,47.84626,-54.09684
2022-12-17 18:39:00+00:00,320.738,4.34,12.65,47.84626,-54.09684
2022-12-17 18:49:00+00:00,319.948,4.3,12.65,47.84626,-54.09684
2022-12-17 18:59:00+00:00,319.5463,4.3,12.65,47.84626,-54.09684
2022-12-17 19:09:00+00:00,320.7479,4.3,12.65,47.84626,-54.09684
2022-12-17 19:19:00+00:00,316.7296,4.39,12.57,47.84626,-54.09684
2022-12-17 19:29:00+00:00,318.2029,4.4,12.57,47.84626,-54.09684
2022-12-17 19:39:00+00:00,321.2614,4.4,12.57,47.84626,-54.09684
2022-12-17 19:49:00+00:00,319.9896,4.4,12.57,47.84626,-54.09684
2022-12-17 19:59:00+00:00,313.0896,4.4,12.57,47.84626,-54.09684
2022-12-17 20:09:00+00:00,309.9347,4.39,12.57,47.84626,-54.09684
2022-12-17 20:19:00+00:00,309.223,4.4,12.49,47.84626,-54.09684
2022-12-17 20:29:00+00:00,303.4097,4.39,12.49,47.84626,-54.09684
2022-12-17 20:39:00+00:00,300.4431,4.38,12.49,47.84626,-54.09684
2022-12-17 20:49:00+00:00,297.4313,4.39,12.49,47.84626,-54.09684
2022-12-17 20:59:00+00:00,292.7947,4.39,12.49,47.84626,-54.09684
2022-12-17 21:09:00+00:00,287.7247,4.39,12.49,47.84626,-54.09684
2022-12-17 21:19:00+00:00,286.5032,4.38,12.41,47.84626,-54.09684
2022-12-17 21:29:00+00:00,283.6714,4.39,12.41,47.84626,-54.09684
2022-12-17 21:39:00+00:00,278.2563,4.37,12.41,47.84626,-54.09684
2022-12-17 21:49:00+00:00,274.4431,4.38,12.41,47.84626,-54.09684
2022-12-17 21:59:00+00:00,270.5198,4.36,12.41,47.84626,-54.09684
2022-12-17 22:09:00+00:00,263.4797,4.37,12.41,47.84626,-54.09684
2022-12-17 22:19:00+00:00,260.3581,4.38,12.41,47.84626,-54.09684
2022-12-17 22:29:00+00:00,260.303,4.4,12.41,47.84626,-54.09684
2022-12-17 22:39:00+00:00,257.6148,4.4,12.41,47.84626,-54.09684
2022-12-17 22:49:00+00:00,253.7097,4.4,12.41,47.84626,-54.09684
2022-12-17 22:59:00+00:00,251.9997,4.4,12.41,47.84626,-54.09684
2022-12-17 23:09:00+00:00,249.4147,4.4,12.41,47.84626,-54.09684
2022-12-17 23:19:00+00:00,244.8764,4.4,12.33,47.84626,-54.09684
2022-12-17 23:29:00+00:00,241.7014,4.4,12.33,47.84626,-54.09684
2022-12-17 23:39:00+00:00,240.5415,4.4,12.33,47.84626,-54.09684
2022-12-17 23:49:00+00:00,241.3214,4.4,12.33,47.84626,-54.09684
2022-12-17 23:59:00+00:00,240.6148,4.4,12.33,47.84626,-54.09684
